Weather in Kostomuksa

Russia / Republic of Karelia     62°33′34″N   32°43′15″E
temp.,
°C
wind,
m/s
gust,
m/s
humid.,
%
clouds,
%
prec.,
mm/h
press.,
hPa
HPBL,
m
26 january, tue
tue2600:00+1s3998100 0.1 1006382
03:00+1s3898100 0.1 1006378
06:00+1sse3798100 0.0 1007328
09:00+1sse2699100 0.1 1006222
12:00+1ese2699100 0.3 1006153
15:00+1sse2699100 0.7 1006204
18:00+1ese3699100 0.0 1005270
21:000e3699100 1.0 1004211
27 january, wed
wed2700:00+1ese2699100 1.2 1003165
03:00+1sse2699100 1.8 1003225
06:000ese3699100 1.6 1001335
09:00−1ese3698100 2.8 999351
12:00−1se3697100 1.0 999432
15:00−1ese249899 1.4 999254
18:00−4s129891 0.2 100027
21:00−7ssw129869 0.2 100121
28 january, thu
thu2800:00−7ssw129876 0.0 100321
03:00−7s129781 0.1 100523
06:00−7sse119773 0.1 100621
09:00−7sse229782 0.2 100862
12:00−7se239790 0.1 1008130
15:00−6ese249795 0.2 1009144
18:00−8e3697100 0.1 1009181
21:00−7ese3796100 0.2 1008258
29 january, fri
fri2900:00−8e3797100 0.1 1008267
03:00−7e4895100 0.2 1007347
06:00−6e41095100 0.6 1005378
09:00−5e41095100 1.6 1004520
12:00−4e4995100 1.4 1003426
15:00−3e4995100 1.5 1002375
18:00−2e3997100 0.5 1001364
21:00−3e4996100 0.7 1001405
30 january, sat
sat3000:00−4e41095100 0.4 1000514
03:00−4e41094100 1.0 999598
06:00−4e4994100 0.2 998668
09:00−5ese41095100 0.4 997650
12:00−6e4992100 0.4 997615
15:00−6e4892100 0.6 996623
18:00−8ene4993100 0.1 996396
21:00−10ene4894100 0.3 995413